GEFSCGP_prec_meanprecacc_042.txt.gz
Total_Precipitation_Accumulation
0.00 0.00 0.00 0.00 0.00 0.00 0.00 0.00 0.00 0.00 0.00 0.00 0.00 0.00 0.01 0.03 0.09 0.19 0.41 0.61 0.80 0.89 0.88 0.84 0.76 0.76 0.63 0.50 0.49 0.43 0.46 0.67 0.86 0.81 0.82 0.86 0.80 0.69 0.53 0.43 0.41 0.45 0.46 0.50
0.00 0.00 0.00 0.00 0.00 0.00 0.00 0.00 0.00 0.00 0.00 0.00 0.00 0.00 0.02 0.06 0.07 0.08 0.18 0.33 0.51 0.83 0.99 1.02 1.04 0.96 0.79 0.79 0.88 0.99 1.26 1.50 1.38 1.41 1.50 1.42 1.30 1.01 0.83 0.70 0.61 0.60 0.63 0.66
0.00 0.00 0.00 0.00 0.00 0.00 0.00 0.00 0.00 0.00 0.00 0.00 0.00 0.00 0.02 0.09 0.15 0.19 0.19 0.22 0.27 0.40 0.54 0.68 0.82 0.93 1.10 1.31 1.49 1.70 1.89 1.90 1.78 1.84 1.85 1.56 1.39 1.18 1.06 0.99 0.84 0.78 0.82 0.85
0.00 0.00 0.00 0.00 0.00 0.00 0.00 0.00 0.00 0.00 0.00 0.00 0.00 0.00 0.01 0.04 0.09 0.16 0.23 0.28 0.27 0.29 0.37 0.56 0.79 1.08 1.44 1.73 2.06 2.31 2.30 2.22 2.09 2.10 2.01 1.86 1.66 1.44 1.30 1.21 1.01 0.92 0.91 0.94
0.01 0.00 0.00 0.00 0.00 0.00 0.00 0.00 0.00 0.00 0.00 0.00 0.00 0.00 0.00 0.01 0.02 0.06 0.15 0.24 0.30 0.38 0.47 0.65 0.88 1.15 1.37 1.68 1.98 2.21 2.36 2.36 2.21 2.11 1.99 1.90 1.70 1.49 1.33 1.16 1.06 1.05 1.09 1.03
0.03 0.02 0.01 0.01 0.00 0.00 0.00 0.00 0.00 0.00 0.00 0.00 0.00 0.00 0.00 0.01 0.02 0.06 0.17 0.27 0.39 0.57 0.68 0.83 1.04 1.23 1.33 1.49 1.75 1.93 2.04 2.02 1.95 1.86 1.79 1.78 1.72 1.67 1.50 1.30 1.25 1.27 1.20 1.07
0.05 0.03 0.04 0.03 0.02 0.01 0.00 0.01 0.04 0.02 0.00 0.00 0.00 0.00 0.05 0.06 0.06 0.11 0.21 0.38 0.57 0.78 0.91 1.03 1.23 1.38 1.44 1.42 1.48 1.58 1.61 1.59 1.49 1.40 1.32 1.32 1.33 1.35 1.30 1.25 1.25 1.27 1.22 1.15
0.12 0.04 0.06 0.08 0.06 0.04 0.04 0.06 0.16 0.12 0.03 0.01 0.01 0.05 0.15 0.16 0.18 0.23 0.29 0.40 0.59 0.75 0.87 1.04 1.13 1.07 1.01 1.03 1.10 1.15 1.14 1.09 1.01 1.01 1.01 1.04 1.12 1.17 1.15 1.16 1.19 1.22 1.23 1.19
0.06 0.04 0.06 0.08 0.08 0.08 0.12 0.16 0.14 0.23 0.17 0.14 0.05 0.10 0.19 0.21 0.32 0.41 0.49 0.55 0.59 0.63 0.63 0.66 0.68 0.73 0.80 0.84 0.85 0.85 0.87 0.86 0.79 0.78 0.83 0.88 0.92 0.98 0.99 1.03 1.05 1.05 1.03 0.97
0.02 0.02 0.03 0.03 0.05 0.06 0.12 0.22 0.33 0.47 0.44 0.32 0.14 0.15 0.31 0.45 0.49 0.55 0.71 0.92 0.80 0.58 0.52 0.51 0.52 0.58 0.62 0.65 0.70 0.73 0.81 0.88 0.84 0.77 0.76 0.74 0.75 0.76 0.83 0.87 0.84 0.81 0.83 0.78
0.01 0.03 0.04 0.05 0.07 0.11 0.20 0.28 0.38 0.48 0.49 0.44 0.35 0.33 0.30 0.57 0.64 0.63 0.68 0.73 0.65 0.46 0.34 0.30 0.31 0.36 0.44 0.56 0.64 0.66 0.76 0.82 0.77 0.67 0.66 0.67 0.66 0.66 0.65 0.65 0.61 0.59 0.61 0.60
0.02 0.03 0.03 0.05 0.07 0.07 0.15 0.28 0.39 0.48 0.47 0.47 0.45 0.44 0.27 0.42 0.48 0.49 0.56 0.47 0.39 0.28 0.21 0.19 0.20 0.24 0.32 0.41 0.46 0.53 0.62 0.71 0.72 0.67 0.66 0.66 0.66 0.63 0.58 0.54 0.47 0.40 0.40 0.38
0.00 0.01 0.02 0.06 0.12 0.11 0.12 0.15 0.22 0.31 0.37 0.37 0.41 0.46 0.30 0.30 0.38 0.40 0.37 0.31 0.24 0.19 0.16 0.15 0.16 0.20 0.23 0.28 0.34 0.41 0.46 0.54 0.61 0.62 0.66 0.68 0.64 0.57 0.51 0.47 0.42 0.36 0.30 0.25
0.00 0.00 0.02 0.06 0.08 0.07 0.09 0.13 0.17 0.24 0.33 0.29 0.25 0.29 0.34 0.33 0.33 0.32 0.26 0.22 0.19 0.16 0.15 0.13 0.13 0.15 0.15 0.18 0.24 0.28 0.32 0.38 0.45 0.53 0.64 0.72 0.74 0.68 0.59 0.46 0.38 0.31 0.22 0.16
0.00 0.01 0.02 0.02 0.02 0.02 0.04 0.07 0.11 0.17 0.20 0.24 0.21 0.25 0.33 0.33 0.30 0.25 0.22 0.21 0.21 0.19 0.14 0.11 0.10 0.09 0.10 0.12 0.16 0.23 0.28 0.32 0.39 0.51 0.69 0.77 0.71 0.61 0.54 0.44 0.33 0.25 0.16 0.11
0.00 0.01 0.03 0.05 0.06 0.09 0.12 0.13 0.11 0.11 0.11 0.14 0.18 0.25 0.26 0.25 0.25 0.25 0.23 0.20 0.19 0.15 0.12 0.10 0.09 0.08 0.07 0.07 0.08 0.14 0.22 0.26 0.33 0.42 0.51 0.54 0.54 0.52 0.43 0.37 0.27 0.18 0.13 0.09
0.01 0.01 0.02 0.05 0.12 0.16 0.17 0.14 0.21 0.24 0.19 0.19 0.29 0.31 0.24 0.22 0.18 0.14 0.12 0.12 0.11 0.10 0.08 0.08 0.08 0.07 0.06 0.06 0.07 0.12 0.16 0.19 0.26 0.31 0.33 0.39 0.46 0.46 0.36 0.26 0.21 0.17 0.12 0.07
0.01 0.01 0.03 0.06 0.16 0.22 0.15 0.04 0.05 0.10 0.12 0.13 0.17 0.17 0.14 0.12 0.08 0.04 0.03 0.04 0.04 0.04 0.05 0.05 0.05 0.05 0.04 0.05 0.09 0.12 0.15 0.17 0.22 0.28 0.33 0.36 0.42 0.41 0.34 0.28 0.23 0.17 0.11 0.08
0.00 0.00 0.02 0.05 0.10 0.12 0.08 0.03 0.01 0.04 0.05 0.01 0.03 0.03 0.03 0.01 0.03 0.06 0.03 0.01 0.02 0.03 0.04 0.03 0.03 0.04 0.07 0.07 0.09 0.12 0.17 0.19 0.22 0.25 0.32 0.39 0.41 0.35 0.29 0.26 0.21 0.17 0.14 0.09
0.00 0.00 0.01 0.03 0.08 0.10 0.05 0.01 0.00 0.02 0.07 0.01 0.01 0.02 0.02 0.04 0.11 0.15 0.05 0.00 0.01 0.03 0.07 0.07 0.06 0.09 0.13 0.12 0.11 0.14 0.18 0.22 0.27 0.29 0.35 0.40 0.38 0.32 0.27 0.23 0.19 0.16 0.15 0.12
0.00 0.00 0.00 0.01 0.04 0.04 0.01 0.01 0.01 0.05 0.10 0.01 0.00 0.01 0.01 0.04 0.09 0.07 0.01 0.00 0.01 0.02 0.07 0.11 0.14 0.21 0.20 0.16 0.15 0.18 0.20 0.22 0.26 0.29 0.33 0.39 0.40 0.29 0.23 0.20 0.19 0.16 0.14 0.14
0.00 0.00 0.00 0.01 0.03 0.02 0.00 0.00 0.01 0.02 0.01 0.00 0.00 0.00 0.00 0.01 0.01 0.02 0.02 0.01 0.02 0.03 0.06 0.13 0.22 0.26 0.22 0.21 0.25 0.27 0.26 0.24 0.25 0.28 0.29 0.34 0.35 0.25 0.20 0.21 0.20 0.17 0.17 0.16
0.00 0.00 0.00 0.00 0.00 0.00 0.00 0.00 0.00 0.00 0.00 0.00 0.00 0.00 0.00 0.00 0.01 0.01 0.01 0.03 0.06 0.07 0.08 0.09 0.15 0.18 0.18 0.21 0.27 0.34 0.36 0.28 0.26 0.28 0.31 0.31 0.30 0.29 0.24 0.22 0.21 0.18 0.16 0.17
0.00 0.00 0.00 0.00 0.00 0.00 0.00 0.00 0.00 0.00 0.00 0.00 0.00 0.00 0.00 0.00 0.00 0.00 0.00 0.01 0.04 0.06 0.04 0.03 0.05 0.10 0.14 0.16 0.20 0.26 0.30 0.29 0.27 0.28 0.32 0.34 0.33 0.33 0.30 0.27 0.26 0.24 0.21 0.19
0.00 0.00 0.00 0.01 0.01 0.00 0.00 0.00 0.00 0.00 0.00 0.00 0.00 0.00 0.00 0.00 0.00 0.00 0.00 0.00 0.01 0.03 0.02 0.03 0.04 0.08 0.10 0.12 0.11 0.11 0.13 0.18 0.23 0.26 0.33 0.38 0.37 0.35 0.32 0.27 0.25 0.25 0.24 0.22
0.01 0.01 0.01 0.02 0.02 0.02 0.01 0.00 0.00 0.00 0.00 0.00 0.00 0.00 0.00 0.01 0.00 0.00 0.00 0.00 0.00 0.01 0.01 0.01 0.02 0.03 0.04 0.04 0.05 0.06 0.08 0.12 0.19 0.24 0.24 0.26 0.27 0.27 0.26 0.23 0.18 0.13 0.12 0.11

GEFSCGP_prec_meanprecacc_048.txt.gz
Total_Precipitation_Accumulation
0.00 0.00 0.00 0.00 0.00 0.00 0.00 0.00 0.00 0.00 0.00 0.00 0.00 0.00 0.01 0.03 0.09 0.19 0.41 0.61 0.80 0.89 0.88 0.84 0.76 0.76 0.64 0.50 0.50 0.49 0.60 0.87 1.06 1.02 0.99 1.01 0.93 0.81 0.61 0.48 0.46 0.52 0.55 0.63
0.00 0.00 0.00 0.00 0.00 0.00 0.00 0.00 0.00 0.00 0.00 0.00 0.00 0.00 0.02 0.06 0.07 0.08 0.18 0.33 0.51 0.83 0.99 1.03 1.04 0.96 0.79 0.80 0.93 1.11 1.45 1.74 1.63 1.67 1.78 1.70 1.59 1.22 0.97 0.83 0.74 0.72 0.79 0.84
0.00 0.00 0.00 0.00 0.00 0.00 0.00 0.00 0.00 0.00 0.00 0.00 0.00 0.00 0.02 0.09 0.15 0.19 0.19 0.22 0.27 0.40 0.54 0.68 0.83 0.93 1.12 1.33 1.54 1.78 2.04 2.11 2.03 2.12 2.14 1.82 1.67 1.36 1.25 1.17 1.03 0.98 1.06 1.10
0.00 0.00 0.00 0.00 0.00 0.00 0.00 0.00 0.00 0.00 0.00 0.00 0.00 0.00 0.01 0.04 0.09 0.16 0.23 0.29 0.28 0.29 0.37 0.56 0.79 1.09 1.45 1.75 2.09 2.36 2.38 2.34 2.27 2.32 2.24 2.08 1.88 1.62 1.54 1.52 1.32 1.19 1.16 1.17
0.01 0.00 0.00 0.00 0.00 0.00 0.00 0.00 0.00 0.00 0.00 0.00 0.00 0.00 0.00 0.01 0.03 0.07 0.16 0.27 0.33 0.39 0.47 0.65 0.88 1.16 1.38 1.68 1.99 2.23 2.40 2.42 2.32 2.25 2.16 2.10 1.91 1.72 1.61 1.49 1.37 1.33 1.36 1.26
0.03 0.02 0.01 0.01 0.00 0.00 0.00 0.00 0.00 0.00 0.00 0.00 0.00 0.00 0.00 0.01 0.02 0.06 0.18 0.28 0.39 0.58 0.68 0.83 1.04 1.23 1.33 1.50 1.75 1.93 2.05 2.06 2.01 1.94 1.90 1.90 1.86 1.84 1.69 1.52 1.51 1.53 1.46 1.28
0.05 0.03 0.04 0.03 0.02 0.01 0.00 0.01 0.04 0.02 0.00 0.00 0.00 0.01 0.05 0.06 0.06 0.12 0.22 0.38 0.57 0.78 0.91 1.03 1.23 1.38 1.44 1.42 1.48 1.58 1.62 1.61 1.52 1.45 1.40 1.41 1.44 1.47 1.43 1.42 1.47 1.51 1.46 1.37
0.12 0.04 0.06 0.08 0.06 0.04 0.04 0.06 0.16 0.12 0.03 0.01 0.01 0.05 0.15 0.16 0.18 0.23 0.29 0.40 0.59 0.75 0.87 1.04 1.13 1.07 1.01 1.03 1.10 1.15 1.15 1.12 1.05 1.06 1.08 1.11 1.21 1.27 1.27 1.32 1.37 1.43 1.43 1.40
0.06 0.04 0.06 0.08 0.08 0.08 0.12 0.16 0.14 0.23 0.17 0.14 0.05 0.10 0.19 0.21 0.32 0.41 0.49 0.55 0.59 0.63 0.63 0.66 0.68 0.73 0.80 0.85 0.86 0.85 0.88 0.88 0.82 0.81 0.88 0.93 0.99 1.07 1.08 1.15 1.19 1.23 1.21 1.15
0.02 0.02 0.03 0.03 0.05 0.06 0.12 0.22 0.33 0.47 0.45 0.32 0.14 0.15 0.32 0.45 0.49 0.55 0.71 0.92 0.80 0.58 0.52 0.51 0.52 0.58 0.62 0.65 0.70 0.74 0.82 0.90 0.86 0.80 0.80 0.80 0.83 0.87 0.95 1.01 1.01 1.02 1.06 1.01
0.01 0.03 0.04 0.05 0.07 0.11 0.20 0.28 0.38 0.48 0.49 0.45 0.36 0.33 0.30 0.57 0.64 0.63 0.68 0.73 0.65 0.46 0.34 0.30 0.31 0.36 0.44 0.56 0.64 0.66 0.76 0.84 0.80 0.71 0.70 0.74 0.75 0.78 0.80 0.84 0.82 0.84 0.87 0.89
0.02 0.03 0.03 0.05 0.07 0.07 0.15 0.28 0.39 0.48 0.47 0.47 0.45 0.44 0.27 0.42 0.48 0.49 0.56 0.47 0.39 0.28 0.21 0.19 0.20 0.24 0.32 0.41 0.47 0.54 0.63 0.73 0.75 0.71 0.70 0.73 0.75 0.74 0.71 0.70 0.67 0.65 0.65 0.65
0.00 0.01 0.02 0.06 0.12 0.11 0.12 0.15 0.22 0.31 0.37 0.37 0.41 0.46 0.30 0.30 0.38 0.40 0.37 0.31 0.24 0.19 0.16 0.15 0.16 0.20 0.23 0.28 0.35 0.42 0.47 0.55 0.63 0.65 0.70 0.74 0.73 0.69 0.69 0.70 0.69 0.65 0.60 0.56
0.00 0.00 0.02 0.06 0.08 0.07 0.09 0.13 0.17 0.24 0.33 0.29 0.25 0.29 0.34 0.33 0.33 0.32 0.26 0.22 0.19 0.16 0.15 0.13 0.14 0.15 0.15 0.18 0.25 0.30 0.34 0.40 0.47 0.56 0.69 0.80 0.85 0.84 0.82 0.74 0.72 0.68 0.61 0.56
0.00 0.01 0.02 0.02 0.02 0.02 0.04 0.07 0.11 0.17 0.20 0.24 0.21 0.25 0.33 0.33 0.30 0.25 0.22 0.21 0.21 0.19 0.14 0.11 0.11 0.10 0.10 0.13 0.16 0.25 0.31 0.35 0.42 0.55 0.75 0.85 0.82 0.75 0.71 0.67 0.68 0.64 0.55 0.48
0.00 0.01 0.03 0.05 0.06 0.09 0.12 0.13 0.11 0.11 0.11 0.14 0.18 0.25 0.26 0.25 0.25 0.25 0.23 0.20 0.19 0.15 0.12 0.10 0.09 0.08 0.07 0.07 0.09 0.15 0.25 0.31 0.39 0.49 0.59 0.62 0.65 0.65 0.59 0.54 0.50 0.47 0.44 0.38
0.01 0.01 0.02 0.05 0.12 0.16 0.17 0.14 0.21 0.24 0.19 0.19 0.29 0.31 0.24 0.22 0.18 0.14 0.12 0.12 0.11 0.10 0.08 0.08 0.08 0.07 0.06 0.06 0.08 0.13 0.19 0.23 0.33 0.39 0.43 0.49 0.57 0.58 0.49 0.41 0.42 0.42 0.35 0.29
0.01 0.01 0.03 0.06 0.16 0.22 0.15 0.04 0.05 0.10 0.12 0.13 0.17 0.17 0.14 0.12 0.08 0.04 0.03 0.04 0.04 0.04 0.05 0.05 0.05 0.05 0.04 0.05 0.09 0.12 0.17 0.21 0.30 0.38 0.43 0.46 0.54 0.53 0.45 0.41 0.39 0.35 0.29 0.23
0.00 0.00 0.02 0.05 0.10 0.12 0.08 0.03 0.01 0.04 0.05 0.01 0.03 0.03 0.03 0.01 0.03 0.06 0.03 0.01 0.02 0.03 0.04 0.03 0.03 0.04 0.07 0.08 0.09 0.12 0.19 0.22 0.27 0.35 0.42 0.48 0.53 0.48 0.42 0.38 0.32 0.27 0.25 0.19
0.00 0.00 0.01 0.03 0.09 0.11 0.05 0.01 0.00 0.02 0.07 0.01 0.01 0.02 0.02 0.04 0.12 0.15 0.05 0.00 0.01 0.03 0.07 0.07 0.06 0.09 0.13 0.12 0.11 0.15 0.20 0.25 0.33 0.40 0.45 0.49 0.49 0.46 0.41 0.36 0.29 0.23 0.22 0.19
0.00 0.00 0.00 0.01 0.04 0.04 0.01 0.01 0.01 0.06 0.11 0.02 0.00 0.01 0.01 0.05 0.10 0.08 0.01 0.00 0.01 0.02 0.07 0.11 0.14 0.21 0.20 0.16 0.15 0.18 0.20 0.25 0.30 0.37 0.43 0.49 0.51 0.42 0.37 0.33 0.28 0.23 0.20 0.20
0.00 0.00 0.00 0.01 0.04 0.03 0.00 0.00 0.02 0.04 0.02 0.00 0.00 0.01 0.01 0.02 0.02 0.03 0.02 0.02 0.02 0.04 0.07 0.14 0.23 0.27 0.23 0.21 0.25 0.27 0.27 0.26 0.27 0.34 0.39 0.46 0.49 0.36 0.29 0.31 0.28 0.24 0.23 0.23
0.00 0.00 0.00 0.00 0.01 0.01 0.00 0.00 0.00 0.00 0.01 0.01 0.01 0.01 0.01 0.01 0.02 0.02 0.02 0.03 0.06 0.08 0.10 0.12 0.19 0.22 0.22 0.26 0.31 0.37 0.37 0.30 0.29 0.34 0.42 0.43 0.44 0.44 0.40 0.32 0.28 0.25 0.23 0.24
0.00 0.00 0.00 0.01 0.01 0.00 0.00 0.00 0.00 0.00 0.01 0.01 0.01 0.01 0.01 0.02 0.02 0.02 0.02 0.03 0.06 0.08 0.09 0.09 0.13 0.19 0.24 0.28 0.32 0.33 0.33 0.30 0.30 0.35 0.43 0.46 0.47 0.47 0.44 0.40 0.36 0.32 0.28 0.27
0.00 0.00 0.01 0.02 0.02 0.01 0.01 0.00 0.00 0.00 0.00 0.01 0.01 0.01 0.01 0.02 0.03 0.03 0.03 0.04 0.04 0.06 0.06 0.08 0.12 0.19 0.24 0.29 0.30 0.23 0.18 0.20 0.25 0.32 0.42 0.49 0.50 0.49 0.46 0.39 0.36 0.35 0.34 0.29
0.01 0.01 0.02 0.03 0.02 0.02 0.02 0.01 0.00 0.00 0.01 0.01 0.01 0.01 0.01 0.02 0.03 0.04 0.04 0.04 0.04 0.04 0.05 0.07 0.09 0.14 0.18 0.22 0.26 0.24 0.18 0.17 0.23 0.28 0.31 0.35 0.37 0.38 0.38 0.32 0.21 0.15 0.13 0.11

GEFSCGP_prec_meanprecacc_054.txt.gz
Total_Precipitation_Accumulation
0.00 0.00 0.00 0.00 0.00 0.00 0.00 0.00 0.00 0.00 0.00 0.00 0.00 0.00 0.01 0.03 0.09 0.19 0.41 0.61 0.80 0.89 0.88 0.85 0.78 0.80 0.73 0.67 0.73 0.78 0.91 1.14 1.34 1.36 1.36 1.38 1.23 1.08 0.85 0.67 0.64 0.71 0.73 0.84
0.00 0.00 0.00 0.00 0.00 0.00 0.00 0.00 0.00 0.00 0.00 0.00 0.00 0.00 0.02 0.06 0.07 0.08 0.18 0.33 0.51 0.84 1.00 1.04 1.07 1.00 0.85 0.89 1.07 1.31 1.66 1.92 1.81 1.91 2.08 1.99 1.83 1.38 1.11 0.97 0.91 0.93 1.04 1.13
0.00 0.00 0.00 0.00 0.00 0.00 0.00 0.00 0.00 0.00 0.00 0.00 0.00 0.00 0.02 0.09 0.15 0.19 0.19 0.22 0.28 0.42 0.56 0.72 0.86 0.95 1.13 1.35 1.56 1.82 2.09 2.19 2.12 2.23 2.27 1.98 1.84 1.49 1.36 1.30 1.19 1.18 1.33 1.42
0.00 0.00 0.00 0.00 0.00 0.00 0.00 0.00 0.00 0.00 0.00 0.00 0.00 0.00 0.01 0.04 0.09 0.16 0.25 0.30 0.32 0.36 0.43 0.59 0.80 1.09 1.45 1.75 2.09 2.37 2.40 2.38 2.30 2.36 2.29 2.15 1.97 1.72 1.66 1.70 1.49 1.34 1.34 1.39
0.01 0.00 0.00 0.00 0.00 0.00 0.00 0.00 0.00 0.00 0.00 0.00 0.00 0.00 0.00 0.01 0.03 0.08 0.18 0.29 0.37 0.46 0.52 0.66 0.88 1.16 1.38 1.68 1.99 2.23 2.41 2.43 2.33 2.26 2.18 2.13 1.95 1.78 1.68 1.61 1.49 1.41 1.45 1.37
0.03 0.02 0.01 0.01 0.00 0.00 0.00 0.00 0.00 0.00 0.00 0.00 0.00 0.01 0.02 0.03 0.04 0.07 0.19 0.30 0.41 0.59 0.69 0.83 1.05 1.23 1.33 1.50 1.75 1.93 2.06 2.06 2.01 1.94 1.91 1.91 1.87 1.86 1.72 1.57 1.57 1.60 1.54 1.38
0.05 0.03 0.04 0.03 0.02 0.01 0.00 0.01 0.04 0.02 0.00 0.00 0.01 0.01 0.06 0.10 0.11 0.15 0.23 0.39 0.57 0.79 0.91 1.03 1.23 1.38 1.44 1.42 1.48 1.58 1.62 1.61 1.52 1.46 1.40 1.41 1.44 1.48 1.43 1.44 1.50 1.54 1.52 1.43
0.12 0.05 0.07 0.08 0.06 0.04 0.04 0.06 0.16 0.13 0.03 0.01 0.01 0.06 0.17 0.18 0.20 0.24 0.29 0.40 0.59 0.75 0.87 1.04 1.13 1.07 1.01 1.03 1.10 1.15 1.15 1.12 1.05 1.06 1.08 1.11 1.21 1.27 1.27 1.33 1.38 1.44 1.46 1.44
0.06 0.04 0.06 0.08 0.09 0.08 0.12 0.16 0.14 0.23 0.17 0.14 0.05 0.11 0.20 0.22 0.33 0.41 0.49 0.55 0.59 0.63 0.63 0.66 0.68 0.73 0.80 0.85 0.86 0.85 0.88 0.88 0.82 0.81 0.88 0.94 0.99 1.07 1.08 1.16 1.20 1.24 1.23 1.19
0.02 0.02 0.03 0.03 0.05 0.06 0.12 0.22 0.33 0.47 0.45 0.32 0.14 0.15 0.32 0.45 0.49 0.55 0.71 0.92 0.80 0.58 0.52 0.51 0.52 0.58 0.62 0.65 0.70 0.74 0.82 0.90 0.86 0.80 0.80 0.80 0.84 0.88 0.96 1.02 1.02 1.04 1.09 1.07
0.01 0.03 0.04 0.05 0.07 0.11 0.20 0.28 0.38 0.48 0.50 0.45 0.36 0.33 0.30 0.57 0.64 0.63 0.68 0.73 0.65 0.46 0.34 0.30 0.31 0.36 0.44 0.56 0.64 0.66 0.76 0.84 0.80 0.71 0.70 0.74 0.75 0.78 0.81 0.84 0.84 0.86 0.92 0.96
0.02 0.03 0.03 0.05 0.07 0.07 0.15 0.28 0.39 0.48 0.48 0.47 0.45 0.44 0.27 0.42 0.48 0.49 0.56 0.47 0.39 0.28 0.21 0.19 0.20 0.24 0.32 0.41 0.47 0.54 0.63 0.73 0.75 0.71 0.70 0.73 0.76 0.74 0.72 0.72 0.69 0.69 0.71 0.73
0.00 0.01 0.02 0.06 0.12 0.11 0.12 0.15 0.22 0.31 0.37 0.37 0.41 0.46 0.30 0.30 0.38 0.40 0.37 0.31 0.24 0.19 0.16 0.15 0.16 0.20 0.23 0.28 0.35 0.42 0.47 0.55 0.64 0.65 0.70 0.75 0.73 0.70 0.70 0.71 0.71 0.67 0.64 0.63
0.00 0.00 0.02 0.06 0.08 0.07 0.09 0.13 0.17 0.24 0.33 0.29 0.25 0.29 0.34 0.33 0.33 0.32 0.26 0.22 0.19 0.16 0.15 0.13 0.14 0.15 0.15 0.18 0.25 0.30 0.34 0.40 0.47 0.56 0.69 0.81 0.85 0.84 0.83 0.76 0.75 0.71 0.66 0.65
0.00 0.01 0.02 0.02 0.02 0.02 0.04 0.07 0.11 0.17 0.20 0.24 0.21 0.25 0.33 0.33 0.30 0.25 0.22 0.21 0.21 0.19 0.14 0.11 0.11 0.10 0.10 0.13 0.16 0.25 0.32 0.36 0.42 0.56 0.76 0.85 0.82 0.76 0.73 0.70 0.75 0.69 0.60 0.59
0.00 0.01 0.03 0.05 0.06 0.09 0.12 0.13 0.11 0.11 0.12 0.14 0.18 0.26 0.26 0.25 0.25 0.25 0.23 0.20 0.19 0.15 0.12 0.10 0.09 0.08 0.07 0.07 0.09 0.15 0.25 0.32 0.39 0.49 0.60 0.63 0.65 0.67 0.61 0.56 0.52 0.49 0.48 0.47
0.01 0.01 0.02 0.05 0.12 0.16 0.17 0.15 0.21 0.24 0.20 0.19 0.29 0.31 0.24 0.22 0.18 0.14 0.12 0.12 0.11 0.10 0.08 0.08 0.08 0.07 0.06 0.06 0.08 0.13 0.19 0.24 0.34 0.40 0.44 0.50 0.59 0.60 0.52 0.42 0.43 0.44 0.40 0.37
0.01 0.01 0.03 0.06 0.16 0.22 0.15 0.04 0.05 0.10 0.13 0.14 0.18 0.18 0.15 0.12 0.08 0.04 0.03 0.04 0.04 0.04 0.05 0.05 0.05 0.05 0.05 0.06 0.09 0.13 0.18 0.22 0.31 0.40 0.45 0.47 0.56 0.55 0.47 0.42 0.39 0.37 0.32 0.31
0.00 0.00 0.02 0.05 0.10 0.12 0.08 0.03 0.03 0.04 0.06 0.02 0.04 0.04 0.03 0.02 0.03 0.06 0.03 0.01 0.02 0.03 0.04 0.04 0.03 0.05 0.07 0.08 0.09 0.13 0.20 0.24 0.30 0.38 0.46 0.52 0.56 0.51 0.43 0.39 0.33 0.28 0.26 0.23
0.00 0.00 0.01 0.03 0.09 0.11 0.05 0.02 0.03 0.04 0.10 0.02 0.01 0.02 0.02 0.04 0.12 0.15 0.05 0.01 0.01 0.03 0.07 0.08 0.06 0.09 0.14 0.13 0.12 0.17 0.23 0.30 0.39 0.45 0.50 0.54 0.52 0.49 0.43 0.38 0.31 0.25 0.23 0.21
0.00 0.00 0.01 0.02 0.06 0.06 0.02 0.02 0.03 0.09 0.15 0.02 0.01 0.01 0.01 0.05 0.10 0.08 0.02 0.01 0.01 0.03 0.08 0.12 0.15 0.22 0.22 0.18 0.19 0.24 0.27 0.34 0.40 0.47 0.52 0.56 0.56 0.46 0.41 0.36 0.31 0.25 0.22 0.21
0.00 0.00 0.01 0.02 0.07 0.07 0.01 0.01 0.03 0.05 0.02 0.01 0.01 0.01 0.01 0.02 0.02 0.03 0.02 0.02 0.02 0.04 0.07 0.14 0.24 0.28 0.25 0.24 0.32 0.37 0.39 0.39 0.42 0.49 0.54 0.59 0.58 0.42 0.34 0.34 0.31 0.27 0.25 0.24
0.00 0.00 0.01 0.02 0.03 0.02 0.00 0.01 0.01 0.01 0.01 0.01 0.01 0.01 0.02 0.02 0.02 0.03 0.02 0.03 0.06 0.09 0.10 0.13 0.20 0.25 0.26 0.32 0.43 0.56 0.58 0.50 0.49 0.54 0.60 0.59 0.57 0.54 0.48 0.37 0.32 0.28 0.24 0.24
0.00 0.00 0.01 0.02 0.02 0.01 0.00 0.01 0.01 0.01 0.01 0.01 0.01 0.01 0.01 0.02 0.02 0.02 0.02 0.03 0.06 0.09 0.10 0.11 0.15 0.21 0.29 0.38 0.50 0.60 0.62 0.58 0.58 0.60 0.64 0.65 0.63 0.60 0.54 0.47 0.42 0.35 0.29 0.28
0.00 0.00 0.02 0.04 0.03 0.01 0.01 0.01 0.01 0.00 0.01 0.01 0.01 0.01 0.01 0.02 0.03 0.03 0.03 0.04 0.05 0.06 0.07 0.09 0.14 0.22 0.29 0.36 0.46 0.52 0.55 0.60 0.65 0.67 0.70 0.71 0.68 0.63 0.57 0.49 0.45 0.41 0.36 0.30
0.01 0.01 0.03 0.04 0.03 0.03 0.02 0.01 0.00 0.00 0.01 0.01 0.01 0.01 0.01 0.02 0.03 0.04 0.04 0.04 0.04 0.05 0.06 0.08 0.11 0.16 0.23 0.31 0.39 0.47 0.55 0.61 0.69 0.72 0.68 0.64 0.59 0.54 0.50 0.42 0.28 0.20 0.17 0.12

GEFSCGP_prec_meanprecacc_060.txt.gz
Total_Precipitation_Accumulation
0.00 0.00 0.00 0.00 0.00 0.00 0.00 0.00 0.00 0.00 0.00 0.00 0.00 0.00 0.01 0.03 0.09 0.19 0.41 0.61 0.80 0.90 0.90 0.88 0.81 0.84 0.78 0.73 0.79 0.82 0.98 1.25 1.46 1.47 1.49 1.50 1.36 1.21 0.96 0.80 0.79 0.88 0.93 1.07
0.00 0.00 0.00 0.00 0.00 0.00 0.00 0.00 0.00 0.00 0.00 0.00 0.00 0.00 0.02 0.06 0.08 0.08 0.19 0.34 0.52 0.86 1.03 1.07 1.10 1.03 0.88 0.92 1.10 1.34 1.69 1.97 1.85 1.94 2.12 2.04 1.89 1.44 1.17 1.04 1.01 1.06 1.19 1.31
0.00 0.00 0.00 0.00 0.00 0.00 0.00 0.00 0.00 0.00 0.00 0.00 0.00 0.00 0.02 0.09 0.15 0.19 0.20 0.23 0.29 0.44 0.59 0.74 0.88 0.97 1.15 1.36 1.58 1.83 2.10 2.20 2.13 2.24 2.28 2.00 1.87 1.52 1.39 1.32 1.22 1.23 1.41 1.51
0.00 0.00 0.00 0.00 0.00 0.00 0.00 0.00 0.00 0.00 0.00 0.00 0.00 0.00 0.01 0.04 0.09 0.17 0.25 0.31 0.33 0.38 0.45 0.60 0.82 1.10 1.46 1.76 2.10 2.37 2.40 2.38 2.31 2.36 2.30 2.15 1.97 1.73 1.67 1.71 1.51 1.36 1.36 1.42
0.01 0.00 0.00 0.00 0.00 0.00 0.00 0.00 0.00 0.00 0.00 0.00 0.00 0.00 0.01 0.02 0.04 0.08 0.18 0.29 0.38 0.48 0.53 0.67 0.89 1.16 1.38 1.68 1.99 2.23 2.41 2.43 2.33 2.27 2.18 2.13 1.95 1.78 1.68 1.62 1.49 1.42 1.45 1.38
0.03 0.02 0.01 0.01 0.00 0.00 0.00 0.00 0.00 0.00 0.00 0.00 0.00 0.01 0.02 0.03 0.04 0.08 0.20 0.31 0.42 0.60 0.69 0.84 1.05 1.24 1.33 1.50 1.75 1.93 2.06 2.06 2.01 1.94 1.91 1.91 1.87 1.86 1.72 1.57 1.57 1.60 1.54 1.38
0.05 0.03 0.04 0.03 0.02 0.01 0.00 0.01 0.04 0.02 0.00 0.00 0.01 0.01 0.07 0.10 0.11 0.15 0.24 0.39 0.58 0.80 0.92 1.04 1.23 1.38 1.44 1.42 1.48 1.58 1.62 1.61 1.52 1.46 1.40 1.41 1.44 1.48 1.43 1.44 1.50 1.54 1.52 1.43
0.12 0.05 0.07 0.09 0.07 0.04 0.04 0.06 0.16 0.13 0.03 0.01 0.01 0.06 0.17 0.18 0.20 0.24 0.30 0.40 0.60 0.76 0.87 1.04 1.14 1.08 1.02 1.04 1.10 1.16 1.16 1.12 1.05 1.06 1.08 1.11 1.21 1.27 1.27 1.33 1.38 1.44 1.46 1.44
0.06 0.04 0.06 0.08 0.09 0.08 0.12 0.16 0.14 0.23 0.17 0.14 0.05 0.11 0.20 0.22 0.33 0.41 0.49 0.55 0.59 0.64 0.64 0.67 0.69 0.74 0.81 0.85 0.86 0.86 0.88 0.88 0.82 0.82 0.88 0.94 0.99 1.07 1.08 1.16 1.20 1.24 1.23 1.19
0.02 0.02 0.03 0.03 0.05 0.07 0.13 0.22 0.33 0.47 0.45 0.32 0.14 0.15 0.32 0.45 0.49 0.55 0.71 0.93 0.81 0.59 0.52 0.51 0.53 0.58 0.63 0.66 0.70 0.74 0.82 0.90 0.87 0.80 0.80 0.80 0.84 0.88 0.96 1.02 1.02 1.04 1.09 1.07
0.01 0.03 0.04 0.05 0.07 0.11 0.20 0.28 0.38 0.48 0.50 0.45 0.36 0.33 0.30 0.57 0.64 0.63 0.68 0.74 0.66 0.46 0.34 0.30 0.31 0.36 0.44 0.56 0.64 0.66 0.76 0.84 0.80 0.71 0.70 0.74 0.76 0.78 0.81 0.84 0.84 0.86 0.92 0.96
0.02 0.03 0.03 0.05 0.07 0.07 0.15 0.28 0.39 0.48 0.48 0.47 0.45 0.44 0.28 0.42 0.48 0.49 0.56 0.48 0.39 0.29 0.21 0.19 0.20 0.24 0.32 0.41 0.47 0.54 0.63 0.73 0.75 0.71 0.71 0.74 0.76 0.74 0.72 0.72 0.69 0.69 0.71 0.73
0.00 0.01 0.02 0.06 0.12 0.11 0.12 0.15 0.22 0.31 0.37 0.37 0.41 0.46 0.30 0.30 0.38 0.40 0.37 0.31 0.24 0.19 0.16 0.15 0.16 0.20 0.23 0.28 0.35 0.42 0.47 0.55 0.64 0.65 0.70 0.75 0.74 0.70 0.70 0.72 0.71 0.68 0.65 0.63
0.00 0.00 0.02 0.06 0.08 0.07 0.09 0.13 0.17 0.24 0.33 0.29 0.25 0.29 0.34 0.33 0.34 0.32 0.26 0.22 0.19 0.16 0.15 0.13 0.14 0.15 0.15 0.18 0.25 0.30 0.34 0.40 0.48 0.56 0.70 0.82 0.86 0.85 0.83 0.76 0.75 0.71 0.66 0.65
0.00 0.01 0.02 0.02 0.02 0.02 0.04 0.07 0.11 0.17 0.20 0.24 0.22 0.25 0.34 0.34 0.30 0.26 0.23 0.21 0.22 0.19 0.15 0.11 0.11 0.10 0.10 0.13 0.16 0.25 0.32 0.36 0.42 0.56 0.77 0.86 0.83 0.76 0.74 0.70 0.75 0.69 0.60 0.60
0.00 0.01 0.03 0.05 0.06 0.09 0.12 0.13 0.11 0.11 0.12 0.14 0.18 0.26 0.27 0.26 0.26 0.25 0.24 0.21 0.19 0.15 0.12 0.10 0.09 0.08 0.07 0.07 0.09 0.15 0.25 0.32 0.39 0.50 0.61 0.64 0.67 0.68 0.62 0.56 0.52 0.49 0.49 0.47
0.01 0.01 0.02 0.05 0.12 0.16 0.17 0.15 0.21 0.25 0.20 0.20 0.31 0.33 0.26 0.23 0.18 0.15 0.13 0.12 0.11 0.10 0.08 0.08 0.08 0.07 0.06 0.06 0.08 0.13 0.20 0.25 0.35 0.42 0.45 0.52 0.60 0.62 0.53 0.44 0.44 0.45 0.41 0.38
0.01 0.01 0.03 0.06 0.16 0.22 0.15 0.04 0.06 0.11 0.14 0.15 0.19 0.19 0.15 0.13 0.09 0.06 0.04 0.04 0.05 0.04 0.05 0.05 0.05 0.05 0.05 0.06 0.09 0.13 0.18 0.23 0.32 0.41 0.47 0.50 0.58 0.58 0.50 0.45 0.42 0.39 0.34 0.32
0.00 0.00 0.02 0.05 0.11 0.12 0.08 0.04 0.04 0.06 0.07 0.03 0.06 0.06 0.06 0.04 0.05 0.08 0.04 0.01 0.02 0.03 0.04 0.04 0.03 0.05 0.07 0.08 0.09 0.13 0.20 0.24 0.31 0.40 0.49 0.56 0.60 0.56 0.49 0.45 0.38 0.33 0.30 0.24
0.00 0.00 0.01 0.03 0.09 0.11 0.06 0.04 0.05 0.07 0.16 0.09 0.07 0.06 0.05 0.06 0.13 0.16 0.05 0.01 0.01 0.03 0.07 0.08 0.06 0.09 0.14 0.13 0.12 0.17 0.23 0.30 0.40 0.47 0.53 0.58 0.58 0.56 0.52 0.47 0.40 0.33 0.29 0.24
0.00 0.00 0.01 0.02 0.07 0.07 0.03 0.04 0.06 0.15 0.23 0.05 0.02 0.02 0.02 0.06 0.11 0.08 0.02 0.01 0.01 0.03 0.08 0.12 0.15 0.22 0.22 0.18 0.19 0.24 0.28 0.35 0.41 0.49 0.55 0.61 0.65 0.57 0.53 0.49 0.44 0.38 0.32 0.28
0.00 0.00 0.01 0.03 0.08 0.09 0.02 0.02 0.04 0.06 0.03 0.02 0.02 0.02 0.02 0.02 0.02 0.03 0.02 0.02 0.02 0.04 0.07 0.14 0.24 0.28 0.25 0.25 0.32 0.37 0.40 0.40 0.43 0.51 0.58 0.66 0.69 0.56 0.51 0.53 0.50 0.45 0.40 0.35
0.00 0.01 0.01 0.03 0.04 0.02 0.01 0.01 0.02 0.02 0.02 0.02 0.02 0.01 0.02 0.02 0.02 0.03 0.02 0.03 0.06 0.09 0.10 0.13 0.20 0.25 0.26 0.32 0.44 0.56 0.58 0.51 0.50 0.56 0.64 0.65 0.66 0.68 0.67 0.58 0.53 0.51 0.45 0.40
0.00 0.00 0.01 0.03 0.02 0.01 0.01 0.01 0.01 0.01 0.01 0.01 0.01 0.01 0.01 0.02 0.02 0.02 0.02 0.03 0.06 0.09 0.10 0.11 0.15 0.21 0.29 0.38 0.51 0.60 0.63 0.60 0.59 0.61 0.66 0.69 0.70 0.72 0.72 0.69 0.64 0.59 0.52 0.46
0.00 0.00 0.02 0.05 0.03 0.02 0.01 0.01 0.01 0.00 0.01 0.01 0.01 0.01 0.01 0.02 0.03 0.03 0.03 0.04 0.05 0.06 0.07 0.09 0.14 0.22 0.29 0.37 0.46 0.53 0.55 0.61 0.66 0.68 0.72 0.75 0.75 0.75 0.75 0.71 0.67 0.64 0.58 0.48
0.01 0.01 0.03 0.04 0.03 0.03 0.03 0.01 0.00 0.00 0.01 0.01 0.01 0.01 0.01 0.02 0.03 0.04 0.04 0.04 0.04 0.05 0.06 0.08 0.11 0.17 0.23 0.31 0.40 0.47 0.55 0.62 0.71 0.74 0.70 0.68 0.67 0.67 0.67 0.62 0.51 0.45 0.42 0.37

GEFSCGP_prec_meanprecacc_066.txt.gz
Total_Precipitation_Accumulation
0.00 0.00 0.00 0.00 0.00 0.00 0.00 0.00 0.00 0.00 0.00 0.00 0.00 0.00 0.01 0.03 0.09 0.19 0.41 0.61 0.80 0.90 0.91 0.88 0.81 0.85 0.79 0.74 0.80 0.83 0.99 1.25 1.47 1.48 1.49 1.51 1.37 1.22 0.98 0.82 0.81 0.91 0.97 1.13
0.00 0.00 0.00 0.00 0.00 0.00 0.00 0.00 0.00 0.00 0.00 0.00 0.00 0.00 0.02 0.06 0.08 0.08 0.19 0.34 0.53 0.86 1.04 1.08 1.11 1.04 0.88 0.92 1.10 1.34 1.69 1.97 1.85 1.94 2.12 2.04 1.89 1.44 1.17 1.04 1.02 1.07 1.21 1.33
0.00 0.00 0.00 0.00 0.00 0.00 0.00 0.00 0.00 0.00 0.00 0.00 0.00 0.00 0.02 0.09 0.15 0.19 0.20 0.24 0.30 0.45 0.59 0.74 0.89 0.98 1.15 1.36 1.58 1.83 2.10 2.20 2.13 2.24 2.28 2.00 1.87 1.52 1.39 1.32 1.22 1.23 1.41 1.51
0.00 0.00 0.00 0.00 0.00 0.00 0.00 0.00 0.00 0.00 0.00 0.00 0.00 0.00 0.01 0.04 0.09 0.17 0.26 0.32 0.34 0.39 0.46 0.62 0.83 1.11 1.46 1.76 2.10 2.37 2.40 2.38 2.31 2.36 2.30 2.16 1.98 1.73 1.67 1.71 1.51 1.36 1.36 1.42
0.01 0.00 0.00 0.00 0.00 0.00 0.00 0.00 0.00 0.00 0.00 0.00 0.00 0.00 0.01 0.02 0.04 0.09 0.19 0.31 0.40 0.49 0.54 0.69 0.91 1.18 1.39 1.69 1.99 2.23 2.41 2.44 2.33 2.27 2.19 2.13 1.96 1.78 1.69 1.62 1.49 1.42 1.46 1.38
0.03 0.02 0.01 0.01 0.00 0.00 0.00 0.00 0.00 0.00 0.00 0.00 0.00 0.01 0.02 0.03 0.04 0.08 0.21 0.32 0.44 0.62 0.72 0.88 1.11 1.28 1.35 1.51 1.75 1.93 2.06 2.07 2.02 1.95 1.92 1.92 1.88 1.86 1.73 1.57 1.57 1.60 1.54 1.38
0.05 0.03 0.04 0.03 0.02 0.01 0.00 0.01 0.04 0.02 0.00 0.00 0.01 0.01 0.07 0.10 0.12 0.16 0.24 0.40 0.60 0.82 0.96 1.09 1.29 1.42 1.47 1.44 1.50 1.59 1.63 1.62 1.53 1.47 1.41 1.42 1.45 1.49 1.44 1.44 1.50 1.54 1.52 1.43
0.12 0.05 0.07 0.09 0.07 0.04 0.04 0.06 0.16 0.13 0.03 0.01 0.01 0.06 0.17 0.18 0.20 0.24 0.30 0.41 0.61 0.78 0.90 1.08 1.18 1.12 1.06 1.06 1.12 1.17 1.16 1.13 1.06 1.07 1.09 1.12 1.22 1.28 1.28 1.34 1.38 1.45 1.46 1.44
0.06 0.04 0.06 0.08 0.09 0.08 0.12 0.16 0.14 0.23 0.17 0.14 0.05 0.11 0.20 0.22 0.33 0.41 0.50 0.56 0.60 0.65 0.66 0.70 0.72 0.77 0.84 0.88 0.88 0.88 0.90 0.89 0.83 0.82 0.89 0.94 1.00 1.08 1.10 1.17 1.21 1.24 1.23 1.19
0.02 0.02 0.03 0.03 0.05 0.07 0.13 0.22 0.33 0.47 0.45 0.32 0.14 0.15 0.32 0.45 0.49 0.55 0.71 0.93 0.82 0.61 0.54 0.54 0.55 0.60 0.64 0.67 0.71 0.75 0.83 0.90 0.87 0.81 0.81 0.81 0.84 0.88 0.97 1.03 1.03 1.05 1.09 1.07
0.01 0.03 0.04 0.05 0.07 0.11 0.20 0.28 0.38 0.48 0.50 0.45 0.36 0.33 0.30 0.57 0.65 0.63 0.68 0.75 0.67 0.47 0.36 0.32 0.32 0.37 0.45 0.57 0.65 0.67 0.77 0.85 0.80 0.71 0.70 0.74 0.76 0.78 0.81 0.85 0.85 0.87 0.93 0.97
0.02 0.03 0.03 0.05 0.07 0.07 0.15 0.28 0.39 0.48 0.48 0.47 0.45 0.44 0.28 0.42 0.48 0.50 0.56 0.48 0.39 0.29 0.22 0.20 0.20 0.24 0.32 0.41 0.47 0.54 0.63 0.73 0.75 0.71 0.71 0.74 0.76 0.74 0.72 0.73 0.70 0.70 0.72 0.73
0.00 0.01 0.02 0.06 0.12 0.11 0.12 0.15 0.22 0.31 0.37 0.38 0.42 0.46 0.30 0.30 0.38 0.40 0.37 0.32 0.24 0.20 0.16 0.15 0.17 0.20 0.24 0.28 0.36 0.42 0.48 0.56 0.64 0.65 0.70 0.75 0.74 0.70 0.71 0.73 0.72 0.70 0.66 0.64
0.00 0.00 0.02 0.06 0.08 0.07 0.09 0.13 0.17 0.25 0.33 0.29 0.26 0.30 0.34 0.33 0.34 0.32 0.26 0.22 0.20 0.17 0.15 0.14 0.14 0.16 0.16 0.19 0.25 0.30 0.34 0.40 0.48 0.56 0.70 0.82 0.86 0.85 0.84 0.78 0.77 0.74 0.68 0.67
0.00 0.01 0.02 0.02 0.02 0.02 0.04 0.07 0.12 0.17 0.21 0.26 0.24 0.27 0.34 0.34 0.30 0.26 0.23 0.21 0.22 0.20 0.15 0.12 0.11 0.10 0.11 0.13 0.17 0.25 0.32 0.36 0.42 0.56 0.77 0.86 0.83 0.76 0.74 0.71 0.76 0.72 0.63 0.62
0.00 0.01 0.03 0.05 0.06 0.09 0.12 0.13 0.11 0.11 0.12 0.15 0.19 0.27 0.27 0.27 0.26 0.26 0.24 0.21 0.19 0.16 0.12 0.11 0.10 0.08 0.07 0.07 0.09 0.16 0.25 0.32 0.40 0.50 0.61 0.64 0.67 0.68 0.63 0.58 0.54 0.52 0.52 0.50
0.01 0.01 0.03 0.05 0.12 0.16 0.18 0.15 0.22 0.25 0.20 0.21 0.32 0.34 0.26 0.23 0.19 0.16 0.14 0.13 0.13 0.11 0.09 0.08 0.08 0.07 0.06 0.06 0.08 0.13 0.20 0.25 0.35 0.42 0.45 0.52 0.61 0.62 0.54 0.45 0.46 0.47 0.44 0.42
0.01 0.01 0.03 0.06 0.16 0.23 0.16 0.04 0.06 0.11 0.14 0.15 0.20 0.20 0.17 0.15 0.11 0.09 0.07 0.06 0.06 0.05 0.05 0.05 0.05 0.05 0.05 0.06 0.09 0.13 0.18 0.23 0.32 0.41 0.47 0.50 0.59 0.59 0.52 0.47 0.44 0.42 0.38 0.37
0.00 0.00 0.02 0.05 0.11 0.12 0.08 0.04 0.04 0.07 0.08 0.04 0.07 0.08 0.08 0.06 0.07 0.10 0.06 0.03 0.03 0.03 0.04 0.04 0.03 0.05 0.07 0.08 0.09 0.13 0.21 0.24 0.31 0.40 0.49 0.57 0.61 0.57 0.51 0.47 0.41 0.37 0.36 0.32
0.00 0.00 0.01 0.03 0.09 0.12 0.06 0.04 0.05 0.08 0.20 0.11 0.08 0.07 0.06 0.06 0.13 0.16 0.05 0.01 0.01 0.03 0.07 0.08 0.06 0.09 0.14 0.13 0.12 0.17 0.24 0.30 0.40 0.47 0.54 0.59 0.59 0.57 0.54 0.51 0.46 0.40 0.38 0.35
0.00 0.00 0.01 0.02 0.07 0.07 0.03 0.04 0.06 0.16 0.24 0.06 0.02 0.02 0.02 0.06 0.11 0.08 0.02 0.01 0.01 0.03 0.08 0.12 0.15 0.22 0.22 0.18 0.19 0.24 0.28 0.35 0.42 0.49 0.56 0.62 0.66 0.59 0.55 0.53 0.51 0.47 0.45 0.44
0.00 0.01 0.01 0.03 0.09 0.10 0.02 0.02 0.04 0.06 0.03 0.02 0.02 0.02 0.02 0.02 0.02 0.03 0.02 0.02 0.02 0.04 0.07 0.14 0.24 0.28 0.25 0.25 0.32 0.38 0.41 0.41 0.44 0.52 0.59 0.68 0.71 0.58 0.53 0.57 0.57 0.55 0.54 0.55
0.00 0.01 0.01 0.03 0.05 0.02 0.01 0.01 0.02 0.02 0.02 0.02 0.02 0.01 0.02 0.02 0.02 0.03 0.02 0.03 0.06 0.09 0.10 0.13 0.20 0.25 0.26 0.32 0.44 0.57 0.59 0.52 0.52 0.58 0.66 0.67 0.68 0.70 0.70 0.64 0.62 0.60 0.58 0.60
0.00 0.00 0.01 0.03 0.02 0.01 0.01 0.01 0.01 0.01 0.01 0.01 0.01 0.01 0.01 0.02 0.02 0.02 0.02 0.03 0.06 0.09 0.10 0.11 0.15 0.22 0.29 0.38 0.51 0.61 0.64 0.61 0.61 0.63 0.68 0.71 0.73 0.75 0.76 0.75 0.73 0.69 0.65 0.66
0.00 0.00 0.02 0.05 0.03 0.02 0.01 0.01 0.01 0.00 0.01 0.01 0.01 0.01 0.01 0.02 0.03 0.03 0.03 0.04 0.05 0.06 0.07 0.09 0.14 0.22 0.29 0.37 0.46 0.54 0.56 0.63 0.68 0.70 0.74 0.77 0.77 0.79 0.79 0.78 0.77 0.75 0.70 0.65
0.01 0.01 0.03 0.04 0.03 0.03 0.03 0.01 0.00 0.00 0.01 0.01 0.01 0.01 0.02 0.02 0.03 0.04 0.04 0.04 0.04 0.05 0.06 0.09 0.12 0.17 0.24 0.31 0.41 0.48 0.57 0.65 0.74 0.77 0.73 0.71 0.70 0.71 0.73 0.72 0.61 0.54 0.54 0.51

GEFSCGP_prec_meanprecacc_072.txt.gz
Total_Precipitation_Accumulation
0.00 0.00 0.00 0.00 0.00 0.00 0.00 0.00 0.00 0.00 0.00 0.00 0.00 0.00 0.01 0.03 0.09 0.20 0.42 0.64 0.84 0.93 0.92 0.90 0.83 0.86 0.80 0.76 0.83 0.85 1.00 1.27 1.49 1.51 1.52 1.53 1.39 1.23 0.98 0.82 0.81 0.92 0.99 1.15
0.00 0.00 0.00 0.00 0.00 0.00 0.00 0.00 0.00 0.00 0.00 0.00 0.00 0.00 0.02 0.06 0.08 0.10 0.23 0.39 0.54 0.88 1.05 1.09 1.13 1.06 0.90 0.93 1.12 1.36 1.72 2.00 1.88 1.98 2.15 2.06 1.90 1.45 1.18 1.04 1.02 1.07 1.21 1.33
0.00 0.00 0.00 0.00 0.00 0.00 0.00 0.00 0.00 0.00 0.00 0.00 0.00 0.00 0.02 0.09 0.17 0.24 0.29 0.32 0.36 0.50 0.63 0.77 0.91 1.00 1.17 1.39 1.61 1.86 2.15 2.24 2.17 2.28 2.31 2.02 1.89 1.53 1.40 1.32 1.22 1.23 1.41 1.51
0.00 0.00 0.00 0.00 0.00 0.00 0.00 0.00 0.00 0.00 0.00 0.00 0.00 0.00 0.01 0.05 0.15 0.29 0.37 0.45 0.54 0.53 0.52 0.67 0.86 1.14 1.49 1.80 2.15 2.42 2.44 2.42 2.35 2.41 2.35 2.21 2.01 1.76 1.70 1.72 1.51 1.36 1.36 1.42
0.01 0.00 0.00 0.00 0.00 0.00 0.00 0.00 0.00 0.00 0.00 0.00 0.00 0.00 0.01 0.03 0.09 0.23 0.34 0.49 0.66 0.67 0.64 0.75 0.94 1.21 1.42 1.72 2.03 2.27 2.44 2.46 2.36 2.31 2.25 2.21 2.01 1.80 1.70 1.63 1.50 1.43 1.46 1.38
0.03 0.02 0.01 0.01 0.00 0.00 0.00 0.00 0.00 0.00 0.00 0.01 0.01 0.01 0.03 0.04 0.07 0.14 0.32 0.48 0.67 0.86 0.88 0.95 1.16 1.34 1.41 1.56 1.81 1.98 2.09 2.12 2.09 2.02 1.98 1.99 1.94 1.91 1.76 1.60 1.60 1.63 1.55 1.38
0.05 0.04 0.04 0.03 0.02 0.01 0.00 0.01 0.05 0.04 0.06 0.06 0.05 0.04 0.08 0.11 0.13 0.18 0.29 0.50 0.72 0.96 1.04 1.14 1.33 1.46 1.52 1.49 1.54 1.63 1.66 1.68 1.61 1.54 1.48 1.51 1.55 1.57 1.52 1.51 1.56 1.60 1.54 1.43
0.12 0.06 0.07 0.09 0.07 0.04 0.04 0.06 0.17 0.14 0.05 0.04 0.05 0.09 0.20 0.20 0.21 0.25 0.31 0.43 0.64 0.84 0.97 1.12 1.22 1.16 1.10 1.10 1.15 1.19 1.19 1.18 1.13 1.14 1.16 1.21 1.32 1.38 1.38 1.47 1.48 1.53 1.51 1.46
0.06 0.05 0.06 0.08 0.09 0.08 0.12 0.16 0.14 0.23 0.17 0.14 0.06 0.13 0.26 0.28 0.39 0.44 0.51 0.56 0.61 0.67 0.69 0.74 0.78 0.83 0.89 0.92 0.92 0.92 0.94 0.94 0.88 0.87 0.94 1.01 1.07 1.17 1.20 1.30 1.33 1.32 1.31 1.24
0.02 0.02 0.03 0.04 0.05 0.07 0.13 0.22 0.33 0.47 0.45 0.33 0.15 0.19 0.40 0.57 0.65 0.65 0.74 0.94 0.83 0.61 0.55 0.55 0.56 0.62 0.66 0.69 0.74 0.78 0.86 0.94 0.91 0.85 0.84 0.85 0.90 0.95 1.05 1.11 1.13 1.16 1.19 1.16
0.01 0.03 0.04 0.05 0.07 0.12 0.21 0.28 0.38 0.48 0.50 0.46 0.38 0.37 0.34 0.63 0.74 0.72 0.73 0.76 0.67 0.47 0.36 0.32 0.33 0.38 0.46 0.58 0.66 0.68 0.79 0.87 0.82 0.73 0.72 0.76 0.78 0.81 0.86 0.92 0.94 0.98 1.03 1.09
0.02 0.03 0.03 0.05 0.07 0.07 0.16 0.28 0.39 0.49 0.48 0.48 0.47 0.51 0.32 0.46 0.52 0.53 0.58 0.49 0.40 0.29 0.22 0.20 0.20 0.25 0.32 0.41 0.47 0.55 0.64 0.74 0.76 0.71 0.71 0.74 0.77 0.76 0.75 0.77 0.76 0.78 0.81 0.84
0.00 0.01 0.02 0.07 0.14 0.12 0.13 0.15 0.22 0.31 0.37 0.39 0.47 0.59 0.37 0.35 0.44 0.44 0.40 0.33 0.24 0.20 0.16 0.15 0.17 0.20 0.24 0.29 0.36 0.43 0.48 0.56 0.64 0.66 0.70 0.76 0.74 0.71 0.73 0.75 0.75 0.74 0.72 0.73
0.00 0.00 0.02 0.06 0.09 0.07 0.09 0.13 0.17 0.25 0.34 0.30 0.30 0.44 0.45 0.41 0.39 0.34 0.28 0.22 0.20 0.17 0.15 0.14 0.14 0.16 0.16 0.19 0.26 0.31 0.34 0.41 0.48 0.57 0.71 0.82 0.87 0.86 0.85 0.80 0.79 0.77 0.73 0.73
0.00 0.01 0.02 0.02 0.02 0.02 0.04 0.07 0.12 0.17 0.21 0.29 0.28 0.37 0.43 0.38 0.32 0.26 0.23 0.21 0.22 0.20 0.15 0.12 0.11 0.10 0.11 0.13 0.17 0.25 0.32 0.36 0.42 0.56 0.77 0.87 0.84 0.77 0.75 0.73 0.79 0.75 0.67 0.67
0.00 0.01 0.03 0.06 0.07 0.09 0.12 0.13 0.11 0.11 0.12 0.16 0.22 0.32 0.29 0.27 0.26 0.26 0.24 0.21 0.19 0.16 0.13 0.11 0.10 0.08 0.08 0.08 0.09 0.16 0.26 0.32 0.40 0.50 0.62 0.65 0.68 0.69 0.64 0.59 0.56 0.55 0.57 0.56
0.01 0.01 0.03 0.05 0.13 0.16 0.22 0.18 0.23 0.25 0.21 0.22 0.34 0.36 0.26 0.23 0.19 0.16 0.14 0.13 0.13 0.11 0.09 0.08 0.08 0.07 0.06 0.06 0.08 0.14 0.20 0.25 0.35 0.42 0.46 0.52 0.61 0.63 0.55 0.47 0.48 0.51 0.49 0.47
0.01 0.01 0.03 0.06 0.17 0.29 0.23 0.06 0.06 0.11 0.14 0.15 0.20 0.20 0.17 0.15 0.11 0.09 0.07 0.07 0.07 0.06 0.06 0.05 0.05 0.05 0.05 0.06 0.09 0.13 0.18 0.23 0.32 0.41 0.47 0.50 0.59 0.60 0.53 0.50 0.48 0.46 0.44 0.43
0.00 0.00 0.02 0.05 0.11 0.18 0.11 0.04 0.04 0.07 0.09 0.04 0.07 0.08 0.08 0.06 0.07 0.10 0.06 0.03 0.03 0.03 0.04 0.04 0.03 0.05 0.07 0.08 0.10 0.14 0.21 0.24 0.31 0.40 0.49 0.57 0.62 0.59 0.54 0.51 0.47 0.44 0.43 0.38
0.00 0.00 0.01 0.03 0.10 0.15 0.08 0.04 0.05 0.08 0.20 0.11 0.08 0.07 0.06 0.06 0.13 0.16 0.05 0.01 0.01 0.03 0.07 0.08 0.06 0.09 0.14 0.13 0.12 0.18 0.24 0.31 0.41 0.48 0.54 0.59 0.60 0.61 0.58 0.56 0.52 0.47 0.47 0.42
0.00 0.00 0.01 0.03 0.07 0.09 0.03 0.04 0.06 0.16 0.25 0.06 0.02 0.02 0.02 0.06 0.11 0.08 0.02 0.01 0.01 0.03 0.08 0.12 0.15 0.22 0.22 0.18 0.19 0.26 0.30 0.37 0.43 0.50 0.57 0.64 0.68 0.63 0.60 0.60 0.59 0.57 0.54 0.54
0.00 0.01 0.01 0.03 0.10 0.12 0.02 0.02 0.04 0.06 0.03 0.02 0.02 0.02 0.02 0.02 0.02 0.03 0.02 0.02 0.02 0.04 0.07 0.14 0.24 0.29 0.26 0.26 0.34 0.41 0.43 0.43 0.46 0.54 0.62 0.71 0.75 0.61 0.55 0.64 0.65 0.64 0.65 0.65
0.00 0.01 0.01 0.03 0.05 0.02 0.01 0.01 0.02 0.02 0.02 0.02 0.02 0.01 0.02 0.02 0.02 0.03 0.02 0.03 0.06 0.09 0.11 0.13 0.21 0.25 0.27 0.34 0.46 0.60 0.62 0.55 0.55 0.61 0.70 0.72 0.73 0.76 0.75 0.70 0.70 0.70 0.69 0.71
0.00 0.00 0.01 0.03 0.02 0.01 0.01 0.01 0.01 0.01 0.01 0.01 0.01 0.01 0.01 0.02 0.02 0.02 0.02 0.03 0.07 0.10 0.10 0.11 0.16 0.23 0.31 0.40 0.53 0.64 0.67 0.65 0.66 0.70 0.74 0.78 0.80 0.81 0.83 0.85 0.83 0.79 0.75 0.77
0.00 0.00 0.02 0.05 0.03 0.02 0.01 0.01 0.01 0.00 0.01 0.01 0.01 0.01 0.01 0.02 0.03 0.03 0.04 0.04 0.05 0.07 0.08 0.10 0.16 0.25 0.31 0.39 0.49 0.56 0.60 0.69 0.76 0.78 0.81 0.84 0.85 0.87 0.88 0.88 0.87 0.84 0.80 0.74
0.01 0.01 0.03 0.04 0.03 0.03 0.03 0.01 0.00 0.00 0.01 0.01 0.01 0.01 0.02 0.02 0.03 0.04 0.05 0.05 0.05 0.06 0.08 0.11 0.15 0.21 0.27 0.34 0.44 0.52 0.63 0.73 0.83 0.86 0.81 0.79 0.78 0.79 0.82 0.81 0.70 0.59 0.57 0.54

GEFSCGP_prec_meanprecacc_078.txt.gz
Total_Precipitation_Accumulation
0.00 0.00 0.00 0.00 0.00 0.00 0.00 0.00 0.00 0.00 0.00 0.00 0.00 0.00 0.01 0.03 0.09 0.20 0.43 0.67 0.93 1.12 1.19 1.22 1.29 1.42 1.49 1.49 1.52 1.51 1.61 1.76 1.86 1.82 1.77 1.70 1.51 1.30 1.04 0.88 0.88 1.01 1.09 1.26
0.00 0.00 0.00 0.00 0.00 0.00 0.00 0.00 0.00 0.00 0.00 0.00 0.00 0.00 0.02 0.06 0.08 0.12 0.27 0.49 0.73 1.12 1.33 1.46 1.58 1.66 1.60 1.66 1.78 1.94 2.17 2.33 2.14 2.21 2.33 2.19 1.99 1.53 1.29 1.16 1.14 1.19 1.31 1.39
0.00 0.00 0.00 0.00 0.00 0.00 0.00 0.00 0.00 0.00 0.00 0.00 0.00 0.00 0.03 0.10 0.19 0.27 0.39 0.47 0.51 0.78 1.05 1.15 1.26 1.38 1.62 1.90 2.15 2.27 2.42 2.43 2.33 2.43 2.43 2.12 1.97 1.61 1.49 1.48 1.41 1.38 1.50 1.57
0.00 0.00 0.00 0.00 0.00 0.00 0.00 0.00 0.00 0.00 0.00 0.00 0.00 0.01 0.02 0.07 0.18 0.34 0.50 0.59 0.76 0.91 0.94 1.03 1.16 1.40 1.75 2.08 2.41 2.67 2.62 2.56 2.48 2.52 2.46 2.30 2.09 1.85 1.78 1.81 1.62 1.47 1.43 1.46
0.01 0.00 0.00 0.00 0.00 0.00 0.00 0.00 0.00 0.00 0.00 0.00 0.00 0.01 0.03 0.07 0.15 0.31 0.47 0.67 0.90 0.94 0.89 0.99 1.14 1.36 1.58 1.89 2.18 2.42 2.59 2.60 2.50 2.43 2.35 2.30 2.10 1.88 1.76 1.69 1.58 1.53 1.54 1.43
0.03 0.02 0.01 0.01 0.00 0.00 0.00 0.00 0.00 0.00 0.01 0.02 0.03 0.03 0.06 0.14 0.23 0.31 0.47 0.64 0.83 1.04 1.07 1.10 1.29 1.43 1.53 1.72 1.97 2.14 2.26 2.29 2.24 2.14 2.09 2.09 2.02 1.97 1.82 1.66 1.65 1.68 1.61 1.44
0.06 0.05 0.05 0.04 0.02 0.01 0.00 0.01 0.05 0.05 0.08 0.09 0.09 0.08 0.19 0.33 0.40 0.41 0.47 0.68 0.94 1.16 1.19 1.26 1.43 1.55 1.61 1.64 1.69 1.75 1.79 1.83 1.76 1.68 1.62 1.63 1.65 1.67 1.60 1.58 1.62 1.65 1.59 1.49
0.13 0.08 0.08 0.09 0.07 0.05 0.04 0.06 0.17 0.14 0.06 0.06 0.09 0.17 0.35 0.42 0.45 0.47 0.50 0.64 0.91 1.05 1.11 1.21 1.30 1.23 1.17 1.20 1.25 1.28 1.27 1.28 1.24 1.26 1.28 1.30 1.39 1.45 1.44 1.53 1.55 1.59 1.58 1.53
0.06 0.05 0.06 0.09 0.10 0.10 0.14 0.17 0.15 0.23 0.17 0.15 0.12 0.24 0.38 0.44 0.58 0.63 0.68 0.76 0.81 0.81 0.78 0.81 0.83 0.87 0.93 0.96 0.96 0.96 0.98 0.99 0.94 0.93 1.01 1.07 1.12 1.21 1.24 1.33 1.36 1.36 1.35 1.29
0.02 0.02 0.04 0.04 0.06 0.09 0.15 0.25 0.34 0.48 0.47 0.36 0.19 0.31 0.56 0.75 0.84 0.83 0.96 1.16 1.01 0.73 0.61 0.58 0.57 0.62 0.67 0.69 0.74 0.79 0.87 0.96 0.94 0.87 0.86 0.88 0.92 0.96 1.06 1.12 1.15 1.18 1.21 1.18
0.01 0.03 0.04 0.06 0.08 0.13 0.23 0.31 0.41 0.50 0.52 0.49 0.42 0.49 0.49 0.80 0.91 0.93 0.97 0.98 0.81 0.53 0.37 0.33 0.33 0.38 0.46 0.58 0.67 0.69 0.79 0.87 0.83 0.74 0.73 0.77 0.78 0.81 0.86 0.92 0.94 0.99 1.04 1.10
0.02 0.03 0.04 0.05 0.08 0.10 0.19 0.32 0.42 0.51 0.51 0.51 0.53 0.62 0.44 0.61 0.67 0.68 0.71 0.56 0.43 0.31 0.23 0.20 0.21 0.25 0.33 0.42 0.47 0.55 0.64 0.74 0.76 0.71 0.71 0.74 0.77 0.76 0.75 0.77 0.76 0.78 0.81 0.84
0.01 0.02 0.03 0.07 0.15 0.14 0.15 0.18 0.25 0.35 0.42 0.44 0.55 0.70 0.46 0.44 0.50 0.49 0.43 0.36 0.27 0.21 0.17 0.16 0.17 0.21 0.24 0.29 0.36 0.43 0.48 0.56 0.64 0.66 0.70 0.76 0.74 0.72 0.73 0.76 0.76 0.74 0.73 0.73
0.00 0.00 0.02 0.06 0.09 0.09 0.12 0.18 0.23 0.29 0.39 0.37 0.39 0.54 0.52 0.45 0.41 0.36 0.30 0.24 0.21 0.17 0.16 0.14 0.15 0.16 0.16 0.19 0.26 0.31 0.34 0.41 0.48 0.57 0.71 0.82 0.87 0.86 0.86 0.80 0.80 0.78 0.74 0.74
0.00 0.01 0.02 0.02 0.03 0.05 0.09 0.14 0.19 0.26 0.29 0.36 0.33 0.41 0.46 0.39 0.33 0.27 0.23 0.21 0.22 0.20 0.15 0.12 0.11 0.10 0.11 0.13 0.17 0.25 0.32 0.36 0.42 0.56 0.77 0.87 0.84 0.78 0.75 0.73 0.79 0.76 0.68 0.68
0.00 0.01 0.03 0.06 0.08 0.12 0.17 0.21 0.18 0.17 0.15 0.17 0.23 0.33 0.29 0.27 0.26 0.26 0.24 0.21 0.19 0.16 0.13 0.11 0.10 0.08 0.08 0.08 0.09 0.16 0.26 0.32 0.40 0.51 0.62 0.65 0.68 0.69 0.65 0.59 0.57 0.56 0.57 0.57
0.01 0.01 0.03 0.05 0.13 0.17 0.26 0.24 0.26 0.27 0.21 0.22 0.34 0.36 0.26 0.23 0.19 0.16 0.14 0.13 0.13 0.11 0.09 0.08 0.08 0.07 0.06 0.06 0.08 0.14 0.20 0.25 0.35 0.42 0.46 0.52 0.62 0.64 0.56 0.47 0.48 0.52 0.50 0.48
0.01 0.01 0.03 0.06 0.17 0.32 0.26 0.07 0.07 0.11 0.14 0.15 0.20 0.20 0.17 0.15 0.11 0.09 0.07 0.07 0.07 0.06 0.06 0.05 0.05 0.05 0.05 0.06 0.09 0.13 0.18 0.23 0.32 0.42 0.48 0.51 0.60 0.60 0.54 0.51 0.48 0.47 0.44 0.44
0.01 0.00 0.02 0.06 0.12 0.21 0.13 0.05 0.04 0.07 0.09 0.04 0.07 0.08 0.08 0.06 0.07 0.10 0.06 0.03 0.03 0.03 0.04 0.04 0.03 0.05 0.07 0.08 0.10 0.14 0.21 0.25 0.32 0.41 0.50 0.58 0.63 0.60 0.55 0.52 0.48 0.45 0.43 0.39
0.00 0.00 0.01 0.03 0.10 0.16 0.09 0.04 0.05 0.08 0.21 0.11 0.08 0.07 0.06 0.06 0.13 0.16 0.05 0.01 0.01 0.03 0.07 0.08 0.06 0.09 0.14 0.13 0.13 0.18 0.25 0.32 0.42 0.49 0.55 0.60 0.61 0.62 0.59 0.56 0.53 0.48 0.48 0.43
0.00 0.00 0.01 0.03 0.08 0.09 0.03 0.04 0.06 0.16 0.25 0.06 0.02 0.02 0.02 0.06 0.11 0.08 0.02 0.01 0.01 0.03 0.08 0.12 0.15 0.22 0.22 0.18 0.20 0.27 0.32 0.38 0.44 0.52 0.59 0.66 0.70 0.65 0.61 0.61 0.60 0.58 0.55 0.54
0.01 0.01 0.01 0.03 0.10 0.12 0.02 0.02 0.04 0.06 0.03 0.02 0.02 0.02 0.02 0.02 0.02 0.03 0.02 0.02 0.02 0.04 0.07 0.14 0.24 0.29 0.26 0.27 0.36 0.43 0.45 0.45 0.47 0.56 0.64 0.72 0.77 0.63 0.57 0.66 0.67 0.66 0.66 0.66
0.00 0.01 0.01 0.03 0.05 0.02 0.01 0.01 0.02 0.02 0.02 0.02 0.02 0.01 0.02 0.02 0.02 0.03 0.02 0.03 0.07 0.09 0.11 0.13 0.21 0.26 0.28 0.35 0.49 0.63 0.64 0.57 0.57 0.64 0.72 0.74 0.75 0.78 0.78 0.73 0.72 0.72 0.72 0.72
0.00 0.01 0.01 0.03 0.02 0.01 0.01 0.01 0.01 0.01 0.01 0.01 0.01 0.01 0.01 0.02 0.02 0.02 0.02 0.03 0.07 0.10 0.11 0.12 0.17 0.25 0.34 0.42 0.56 0.68 0.70 0.69 0.69 0.72 0.76 0.79 0.81 0.83 0.85 0.87 0.85 0.82 0.78 0.79
0.00 0.00 0.02 0.05 0.03 0.02 0.01 0.01 0.01 0.00 0.01 0.01 0.01 0.01 0.01 0.02 0.03 0.03 0.04 0.04 0.05 0.08 0.09 0.12 0.19 0.29 0.36 0.43 0.53 0.60 0.64 0.73 0.80 0.81 0.83 0.86 0.87 0.89 0.90 0.90 0.89 0.86 0.82 0.76
0.01 0.01 0.03 0.04 0.03 0.03 0.03 0.01 0.00 0.00 0.01 0.01 0.01 0.01 0.02 0.02 0.03 0.04 0.05 0.05 0.06 0.08 0.10 0.15 0.20 0.27 0.32 0.40 0.49 0.56 0.67 0.77 0.88 0.90 0.84 0.82 0.80 0.81 0.84 0.83 0.72 0.60 0.58 0.54

GEFSCGP_prec_meanprecacc_084.txt.gz
Total_Precipitation_Accumulation
0.00 0.00 0.00 0.00 0.00 0.00 0.00 0.00 0.00 0.00 0.00 0.00 0.00 0.00 0.01 0.04 0.10 0.22 0.45 0.70 0.98 1.18 1.28 1.39 1.55 1.69 1.76 1.77 1.87 1.95 2.20 2.54 2.67 2.58 2.47 2.35 1.98 1.66 1.32 1.09 1.05 1.16 1.22 1.35
0.00 0.00 0.00 0.00 0.00 0.00 0.00 0.00 0.00 0.00 0.00 0.00 0.00 0.01 0.02 0.07 0.11 0.15 0.32 0.55 0.79 1.20 1.44 1.59 1.74 1.83 1.79 1.89 2.10 2.35 2.61 2.87 2.71 2.80 2.95 2.81 2.49 1.87 1.52 1.32 1.26 1.29 1.39 1.45
0.00 0.00 0.00 0.00 0.00 0.00 0.00 0.00 0.00 0.00 0.00 0.00 0.00 0.01 0.04 0.12 0.21 0.31 0.45 0.54 0.60 0.89 1.19 1.30 1.40 1.51 1.75 2.08 2.44 2.66 2.80 2.85 2.77 2.87 2.94 2.60 2.35 1.91 1.72 1.65 1.53 1.46 1.57 1.62
0.00 0.00 0.00 0.00 0.00 0.00 0.00 0.00 0.00 0.00 0.00 0.00 0.00 0.01 0.03 0.09 0.20 0.38 0.55 0.67 0.86 1.02 1.06 1.16 1.28 1.52 1.88 2.20 2.58 2.90 2.86 2.81 2.75 2.83 2.81 2.63 2.34 2.05 1.95 1.96 1.74 1.58 1.53 1.54
0.01 0.00 0.00 0.00 0.00 0.00 0.00 0.00 0.00 0.00 0.00 0.00 0.01 0.01 0.04 0.08 0.17 0.34 0.51 0.74 0.98 1.03 0.98 1.10 1.25 1.47 1.68 2.00 2.30 2.55 2.72 2.75 2.68 2.63 2.56 2.51 2.31 2.05 1.92 1.84 1.72 1.65 1.66 1.55
0.03 0.03 0.01 0.01 0.00 0.00 0.00 0.00 0.00 0.00 0.01 0.02 0.03 0.04 0.07 0.15 0.24 0.34 0.51 0.70 0.91 1.12 1.16 1.20 1.40 1.54 1.62 1.81 2.07 2.23 2.35 2.39 2.35 2.25 2.20 2.20 2.13 2.08 1.93 1.76 1.76 1.78 1.72 1.55
0.07 0.06 0.06 0.04 0.03 0.01 0.01 0.01 0.05 0.05 0.08 0.09 0.09 0.09 0.21 0.34 0.41 0.44 0.52 0.73 1.01 1.24 1.27 1.35 1.51 1.62 1.67 1.70 1.76 1.81 1.84 1.87 1.81 1.73 1.67 1.70 1.71 1.73 1.67 1.65 1.70 1.73 1.66 1.55
0.13 0.08 0.09 0.10 0.08 0.05 0.04 0.07 0.17 0.15 0.06 0.06 0.10 0.18 0.37 0.44 0.47 0.50 0.53 0.68 0.94 1.09 1.15 1.26 1.33 1.26 1.20 1.22 1.27 1.30 1.29 1.29 1.26 1.28 1.30 1.33 1.43 1.48 1.48 1.57 1.59 1.63 1.62 1.57
0.06 0.06 0.07 0.09 0.11 0.11 0.15 0.19 0.16 0.25 0.18 0.16 0.14 0.27 0.41 0.46 0.61 0.66 0.71 0.78 0.83 0.83 0.81 0.83 0.85 0.89 0.94 0.97 0.97 0.96 0.99 0.99 0.95 0.94 1.02 1.10 1.15 1.23 1.26 1.35 1.38 1.37 1.36 1.30
0.02 0.03 0.04 0.04 0.06 0.09 0.16 0.26 0.35 0.50 0.49 0.38 0.22 0.36 0.62 0.80 0.89 0.87 0.98 1.18 1.02 0.74 0.62 0.59 0.58 0.63 0.67 0.70 0.75 0.79 0.87 0.96 0.94 0.87 0.87 0.88 0.92 0.97 1.06 1.12 1.15 1.18 1.22 1.19
0.01 0.04 0.05 0.06 0.08 0.14 0.24 0.32 0.41 0.52 0.55 0.52 0.45 0.53 0.54 0.86 0.96 0.97 0.99 1.00 0.83 0.54 0.38 0.33 0.34 0.38 0.46 0.59 0.67 0.69 0.79 0.87 0.83 0.74 0.73 0.77 0.78 0.81 0.86 0.92 0.94 0.99 1.04 1.10
0.02 0.03 0.04 0.06 0.09 0.10 0.19 0.32 0.43 0.53 0.54 0.54 0.56 0.65 0.48 0.64 0.70 0.70 0.73 0.57 0.44 0.31 0.23 0.21 0.21 0.25 0.33 0.42 0.47 0.55 0.64 0.74 0.76 0.72 0.71 0.75 0.77 0.76 0.75 0.77 0.76 0.78 0.82 0.84
0.01 0.02 0.03 0.08 0.15 0.15 0.16 0.19 0.26 0.36 0.43 0.45 0.57 0.72 0.49 0.46 0.52 0.50 0.43 0.36 0.27 0.22 0.17 0.16 0.17 0.21 0.24 0.29 0.36 0.43 0.48 0.56 0.64 0.66 0.70 0.76 0.75 0.72 0.73 0.76 0.76 0.74 0.73 0.73
0.00 0.00 0.02 0.07 0.10 0.10 0.14 0.19 0.24 0.30 0.40 0.38 0.40 0.56 0.54 0.46 0.41 0.37 0.30 0.24 0.21 0.17 0.16 0.14 0.15 0.16 0.16 0.19 0.26 0.31 0.34 0.41 0.48 0.57 0.71 0.82 0.87 0.86 0.86 0.80 0.80 0.78 0.74 0.74
0.01 0.01 0.02 0.02 0.03 0.06 0.10 0.15 0.19 0.26 0.29 0.36 0.33 0.41 0.46 0.39 0.33 0.27 0.23 0.21 0.22 0.20 0.15 0.12 0.11 0.10 0.11 0.13 0.17 0.25 0.32 0.36 0.42 0.57 0.77 0.87 0.84 0.78 0.76 0.73 0.79 0.76 0.68 0.68
0.01 0.01 0.03 0.06 0.08 0.12 0.18 0.21 0.19 0.17 0.16 0.17 0.23 0.33 0.29 0.27 0.26 0.26 0.24 0.21 0.19 0.16 0.13 0.11 0.10 0.08 0.08 0.08 0.09 0.16 0.26 0.32 0.40 0.51 0.62 0.65 0.68 0.70 0.65 0.60 0.57 0.56 0.58 0.57
0.01 0.02 0.03 0.06 0.13 0.18 0.27 0.24 0.26 0.27 0.21 0.22 0.34 0.36 0.26 0.23 0.19 0.16 0.14 0.13 0.13 0.11 0.09 0.08 0.08 0.07 0.06 0.06 0.08 0.14 0.20 0.25 0.35 0.42 0.46 0.53 0.62 0.64 0.57 0.48 0.50 0.53 0.51 0.49
0.01 0.01 0.03 0.06 0.17 0.32 0.26 0.07 0.07 0.11 0.14 0.15 0.20 0.20 0.17 0.15 0.11 0.09 0.07 0.07 0.07 0.06 0.06 0.05 0.05 0.05 0.05 0.06 0.09 0.13 0.19 0.24 0.33 0.43 0.49 0.52 0.62 0.62 0.55 0.52 0.50 0.49 0.46 0.45
0.01 0.01 0.02 0.06 0.12 0.21 0.13 0.05 0.04 0.07 0.09 0.04 0.07 0.08 0.08 0.06 0.07 0.10 0.06 0.03 0.03 0.03 0.04 0.04 0.03 0.05 0.08 0.08 0.10 0.15 0.22 0.26 0.34 0.43 0.53 0.61 0.66 0.63 0.57 0.54 0.49 0.47 0.46 0.41
0.00 0.00 0.01 0.03 0.10 0.16 0.09 0.04 0.05 0.08 0.21 0.11 0.08 0.07 0.06 0.06 0.13 0.16 0.05 0.01 0.01 0.03 0.07 0.08 0.06 0.09 0.14 0.14 0.14 0.20 0.27 0.34 0.45 0.53 0.60 0.65 0.66 0.66 0.62 0.59 0.55 0.50 0.49 0.44
0.00 0.00 0.01 0.03 0.08 0.09 0.03 0.04 0.06 0.16 0.25 0.06 0.02 0.02 0.02 0.06 0.11 0.08 0.02 0.01 0.01 0.03 0.08 0.12 0.15 0.22 0.23 0.19 0.23 0.30 0.35 0.41 0.48 0.55 0.62 0.69 0.73 0.69 0.65 0.65 0.64 0.60 0.57 0.56
0.01 0.01 0.01 0.03 0.10 0.12 0.02 0.02 0.04 0.06 0.03 0.02 0.02 0.02 0.02 0.02 0.02 0.03 0.02 0.02 0.02 0.04 0.07 0.15 0.25 0.29 0.27 0.28 0.39 0.47 0.49 0.48 0.50 0.59 0.66 0.75 0.79 0.66 0.61 0.70 0.71 0.69 0.69 0.68
0.00 0.01 0.01 0.03 0.05 0.02 0.01 0.01 0.02 0.02 0.02 0.02 0.02 0.01 0.02 0.02 0.02 0.03 0.02 0.03 0.07 0.09 0.11 0.13 0.22 0.27 0.29 0.37 0.52 0.68 0.68 0.61 0.61 0.67 0.75 0.76 0.77 0.81 0.82 0.77 0.76 0.75 0.74 0.74
0.00 0.01 0.01 0.03 0.02 0.01 0.01 0.01 0.01 0.01 0.01 0.01 0.01 0.01 0.01 0.02 0.02 0.02 0.02 0.03 0.07 0.10 0.11 0.12 0.18 0.27 0.36 0.45 0.59 0.71 0.74 0.72 0.73 0.75 0.79 0.82 0.84 0.86 0.88 0.91 0.89 0.85 0.80 0.81
0.00 0.00 0.02 0.05 0.03 0.02 0.01 0.01 0.01 0.00 0.01 0.01 0.01 0.01 0.01 0.02 0.03 0.03 0.04 0.04 0.06 0.08 0.09 0.13 0.21 0.32 0.38 0.46 0.56 0.63 0.67 0.76 0.83 0.84 0.86 0.89 0.91 0.93 0.94 0.94 0.92 0.88 0.84 0.77
0.01 0.01 0.03 0.04 0.03 0.03 0.03 0.01 0.00 0.00 0.01 0.01 0.01 0.01 0.02 0.02 0.03 0.04 0.05 0.05 0.07 0.08 0.10 0.16 0.22 0.29 0.35 0.43 0.52 0.58 0.70 0.81 0.93 0.95 0.88 0.87 0.86 0.87 0.89 0.89 0.78 0.64 0.61 0.56

GEFSCGP_prec_meanprecacc_090.txt.gz
Total_Precipitation_Accumulation
0.00 0.00 0.00 0.00 0.00 0.00 0.00 0.00 0.00 0.00 0.00 0.00 0.00 0.00 0.01 0.04 0.10 0.22 0.46 0.72 1.00 1.21 1.31 1.43 1.60 1.76 1.84 1.86 1.97 2.06 2.31 2.68 2.86 2.81 2.75 2.66 2.30 1.97 1.60 1.37 1.35 1.46 1.51 1.64
0.00 0.00 0.00 0.00 0.00 0.00 0.00 0.00 0.00 0.00 0.00 0.00 0.00 0.01 0.02 0.07 0.11 0.16 0.33 0.57 0.81 1.22 1.47 1.63 1.79 1.90 1.86 1.97 2.19 2.46 2.74 3.03 2.92 3.02 3.21 3.09 2.81 2.23 1.87 1.67 1.62 1.65 1.66 1.66
0.00 0.00 0.00 0.00 0.00 0.00 0.00 0.00 0.00 0.00 0.00 0.00 0.00 0.01 0.04 0.12 0.22 0.32 0.46 0.55 0.61 0.91 1.21 1.34 1.45 1.58 1.84 2.18 2.53 2.77 2.95 2.99 2.92 3.06 3.17 2.86 2.61 2.16 2.00 1.97 1.85 1.79 1.87 1.86
0.00 0.00 0.00 0.00 0.00 0.00 0.00 0.00 0.00 0.00 0.00 0.00 0.00 0.02 0.04 0.10 0.21 0.38 0.56 0.68 0.88 1.04 1.08 1.18 1.31 1.56 1.93 2.26 2.63 2.95 2.93 2.89 2.84 2.93 2.97 2.79 2.50 2.22 2.11 2.12 1.92 1.75 1.73 1.74
0.02 0.00 0.00 0.00 0.00 0.00 0.00 0.00 0.00 0.00 0.00 0.00 0.01 0.02 0.06 0.09 0.18 0.35 0.52 0.76 1.00 1.04 1.00 1.13 1.28 1.49 1.70 2.01 2.32 2.57 2.75 2.79 2.71 2.66 2.61 2.57 2.38 2.13 2.00 1.92 1.80 1.75 1.78 1.69
0.04 0.03 0.02 0.01 0.01 0.01 0.00 0.00 0.00 0.00 0.01 0.02 0.03 0.04 0.10 0.16 0.26 0.35 0.53 0.73 0.94 1.14 1.18 1.22 1.42 1.56 1.63 1.82 2.08 2.24 2.37 2.41 2.37 2.27 2.22 2.23 2.17 2.12 1.97 1.82 1.82 1.84 1.78 1.64
0.07 0.06 0.06 0.04 0.03 0.02 0.01 0.02 0.05 0.05 0.08 0.10 0.09 0.11 0.24 0.35 0.42 0.45 0.54 0.76 1.03 1.25 1.28 1.36 1.53 1.63 1.68 1.71 1.76 1.81 1.85 1.88 1.82 1.74 1.68 1.71 1.73 1.75 1.69 1.67 1.72 1.76 1.70 1.61
0.13 0.09 0.09 0.10 0.08 0.06 0.05 0.07 0.18 0.15 0.07 0.08 0.12 0.23 0.40 0.45 0.48 0.52 0.57 0.71 0.96 1.10 1.15 1.26 1.34 1.26 1.20 1.23 1.27 1.30 1.30 1.30 1.27 1.29 1.31 1.35 1.45 1.50 1.49 1.59 1.60 1.65 1.63 1.58
0.06 0.06 0.07 0.09 0.11 0.11 0.15 0.19 0.16 0.25 0.19 0.18 0.18 0.31 0.43 0.48 0.63 0.69 0.73 0.79 0.84 0.83 0.81 0.84 0.86 0.89 0.95 0.97 0.97 0.97 1.00 1.01 0.96 0.95 1.04 1.11 1.16 1.24 1.27 1.36 1.39 1.38 1.37 1.31
0.02 0.03 0.04 0.04 0.06 0.09 0.16 0.26 0.35 0.51 0.50 0.40 0.25 0.42 0.67 0.82 0.90 0.87 0.99 1.19 1.02 0.74 0.62 0.59 0.59 0.63 0.67 0.70 0.75 0.79 0.88 0.97 0.95 0.88 0.88 0.89 0.93 0.97 1.07 1.13 1.16 1.19 1.23 1.19
0.02 0.04 0.05 0.06 0.08 0.14 0.24 0.32 0.42 0.53 0.56 0.54 0.47 0.57 0.57 0.87 0.96 0.97 0.99 1.00 0.83 0.54 0.38 0.33 0.34 0.38 0.46 0.59 0.67 0.69 0.80 0.88 0.84 0.74 0.73 0.77 0.79 0.81 0.86 0.92 0.95 1.00 1.05 1.11
0.02 0.03 0.04 0.06 0.09 0.10 0.19 0.32 0.43 0.54 0.54 0.55 0.56 0.66 0.48 0.64 0.70 0.70 0.73 0.57 0.44 0.31 0.23 0.21 0.21 0.25 0.33 0.42 0.47 0.55 0.64 0.74 0.76 0.72 0.72 0.75 0.78 0.77 0.76 0.77 0.77 0.79 0.83 0.85
0.01 0.02 0.03 0.08 0.16 0.15 0.16 0.19 0.26 0.36 0.44 0.46 0.57 0.72 0.49 0.46 0.52 0.50 0.43 0.36 0.27 0.22 0.17 0.16 0.17 0.21 0.24 0.29 0.36 0.43 0.48 0.56 0.64 0.66 0.71 0.76 0.75 0.72 0.74 0.77 0.77 0.75 0.74 0.74
0.00 0.00 0.02 0.07 0.10 0.10 0.14 0.19 0.24 0.30 0.40 0.38 0.40 0.56 0.54 0.46 0.41 0.37 0.30 0.24 0.21 0.17 0.16 0.14 0.15 0.16 0.16 0.19 0.26 0.31 0.34 0.41 0.49 0.57 0.71 0.83 0.88 0.87 0.87 0.81 0.81 0.79 0.75 0.75
0.01 0.01 0.02 0.02 0.03 0.06 0.10 0.15 0.19 0.26 0.29 0.36 0.33 0.41 0.46 0.39 0.33 0.27 0.23 0.21 0.22 0.20 0.15 0.12 0.11 0.10 0.11 0.14 0.17 0.25 0.32 0.36 0.43 0.57 0.78 0.88 0.86 0.80 0.78 0.75 0.81 0.78 0.70 0.69
0.01 0.01 0.03 0.06 0.08 0.12 0.18 0.21 0.19 0.17 0.16 0.17 0.23 0.33 0.29 0.27 0.26 0.26 0.24 0.21 0.19 0.16 0.13 0.11 0.10 0.09 0.08 0.08 0.09 0.16 0.26 0.33 0.42 0.53 0.64 0.67 0.71 0.73 0.68 0.63 0.60 0.61 0.62 0.61
0.01 0.02 0.03 0.06 0.13 0.18 0.27 0.24 0.26 0.27 0.21 0.22 0.34 0.36 0.26 0.23 0.19 0.16 0.14 0.13 0.13 0.11 0.09 0.08 0.08 0.07 0.07 0.06 0.09 0.15 0.21 0.27 0.37 0.45 0.49 0.56 0.67 0.69 0.61 0.52 0.54 0.59 0.58 0.56
0.01 0.01 0.03 0.06 0.17 0.32 0.26 0.07 0.07 0.11 0.14 0.15 0.20 0.20 0.17 0.15 0.11 0.09 0.07 0.07 0.07 0.06 0.06 0.05 0.05 0.05 0.05 0.06 0.10 0.14 0.20 0.26 0.36 0.46 0.52 0.57 0.68 0.68 0.62 0.58 0.56 0.55 0.54 0.54
0.01 0.01 0.02 0.06 0.12 0.21 0.13 0.05 0.04 0.07 0.09 0.04 0.07 0.08 0.08 0.06 0.07 0.10 0.06 0.03 0.03 0.03 0.04 0.04 0.03 0.05 0.08 0.09 0.11 0.16 0.24 0.28 0.36 0.47 0.57 0.67 0.74 0.72 0.67 0.63 0.58 0.55 0.54 0.50
0.00 0.00 0.01 0.03 0.10 0.16 0.09 0.04 0.05 0.08 0.21 0.11 0.08 0.07 0.06 0.06 0.13 0.16 0.05 0.01 0.01 0.03 0.07 0.08 0.06 0.10 0.15 0.15 0.16 0.23 0.29 0.37 0.48 0.57 0.64 0.70 0.73 0.75 0.72 0.68 0.64 0.59 0.58 0.52
0.00 0.00 0.01 0.03 0.08 0.09 0.03 0.04 0.06 0.16 0.25 0.06 0.02 0.02 0.02 0.06 0.11 0.08 0.02 0.01 0.01 0.03 0.08 0.12 0.16 0.23 0.23 0.21 0.25 0.33 0.38 0.45 0.52 0.60 0.67 0.74 0.80 0.76 0.73 0.73 0.74 0.70 0.66 0.65
0.01 0.01 0.01 0.03 0.10 0.12 0.02 0.02 0.04 0.06 0.03 0.02 0.02 0.02 0.02 0.02 0.02 0.03 0.02 0.02 0.02 0.04 0.07 0.15 0.25 0.30 0.28 0.30 0.43 0.50 0.52 0.51 0.54 0.64 0.71 0.81 0.87 0.73 0.68 0.79 0.80 0.78 0.78 0.77
0.00 0.01 0.01 0.03 0.05 0.02 0.01 0.01 0.02 0.02 0.02 0.02 0.02 0.01 0.02 0.02 0.02 0.03 0.02 0.03 0.07 0.09 0.11 0.14 0.22 0.28 0.30 0.39 0.56 0.72 0.72 0.64 0.65 0.72 0.80 0.83 0.85 0.88 0.90 0.86 0.85 0.85 0.82 0.83
0.00 0.01 0.01 0.03 0.02 0.01 0.01 0.01 0.01 0.01 0.01 0.01 0.01 0.01 0.01 0.02 0.02 0.02 0.02 0.03 0.07 0.10 0.11 0.13 0.19 0.28 0.37 0.46 0.61 0.75 0.77 0.76 0.78 0.82 0.86 0.89 0.92 0.93 0.96 1.00 0.97 0.93 0.88 0.89
0.00 0.00 0.02 0.05 0.03 0.02 0.01 0.01 0.01 0.00 0.01 0.01 0.01 0.01 0.01 0.02 0.03 0.03 0.04 0.04 0.06 0.08 0.10 0.13 0.22 0.33 0.40 0.47 0.58 0.66 0.70 0.81 0.90 0.91 0.94 0.96 0.98 1.00 1.02 1.02 0.99 0.94 0.92 0.84
0.01 0.01 0.03 0.04 0.03 0.03 0.03 0.01 0.00 0.00 0.01 0.01 0.01 0.01 0.02 0.02 0.03 0.04 0.05 0.05 0.07 0.09 0.11 0.16 0.23 0.31 0.37 0.44 0.54 0.62 0.73 0.87 1.00 1.02 0.95 0.94 0.92 0.95 0.98 0.97 0.84 0.68 0.64 0.59